Regional Weather Roundup
Issued by NWS Upton, NY

Home | Current Version | Previous Version | Text Only | Print | Product List | Glossary On
Versions: 1 2 3 4 5 6 7 8 9 10 11 12 13 14 15 16 17 18 19 20 21 22 23 24 25 26 27
000
ASUS41 KOKX 231908
RWROKX

REGIONAL WEATHER ROUNDUP
NATIONAL WEATHER SERVICE NEW YORK NY
200 PM EST THU FEB 23 2017

NOTE: "FAIR" INDICATES FEW OR NO CLOUDS BELOW 12,000 FEET WITH NO
SIGNIFICANT WEATHER AND/OR OBSTRUCTIONS TO VISIBILITY.

NYZ071-072-176-178-NJZ106-104-232000-
NEW YORK CITY METRO AREA

CITY           SKY/WX    TMP DP  RH WIND       PRES   REMARKS
Central Park   SUNNY     60  50  69 VRB6      29.85F
Wall St Helipt NOT AVBL
LaGuardia APRT MOSUNNY   60  51  72 SW12      29.82F
Kennedy INTL   MOSUNNY   53  50  89 S7        29.85F
Breezy Point     N/A     45 N/A N/A SE7         N/A
Newark/Liberty MOSUNNY   62  52  69 SW9       29.82F
Teterboro      SUNNY     63  51  65 S12       29.81F
$$

NYZ177-179-078>081-232000-
LONG ISLAND NEW YORK

CITY           SKY/WX    TMP DP  RH WIND       PRES   REMARKS
Jones Beach      N/A     46 N/A N/A S6          N/A
Matinecock PT    N/A     46 N/A N/A SW7         N/A
Farmingdale    CLOUDY    54  49  83 S10       29.84F
MacArthur/ISP  CLOUDY    53  49  86 S7        29.83F
Shirley        CLOUDY    51  49  92 S8        29.85F
Westhampton    CLOUDY    50  46  86 SW10      29.86F
Southampton      N/A     48  46  93 SW6       29.82F
Bridgehampton  NOT AVBL
East Hampton   CLOUDY    53  47  80 SW13      29.84F
Montauk          N/A     54  48  80 S12       29.85F
$$

NYZ052-065-067-232000-
HUDSON VALLEY

CITY           SKY/WX    TMP DP  RH WIND       PRES   REMARKS
White Plains   SUNNY     61  49  64 S10       29.80F
Newburgh       SUNNY     68  52  56 W17G23    29.76F
Montgomery     SUNNY     70  51  51 SW16      29.73F
Poughkeepsie   SUNNY     67  47  48 SE9       29.74F
Albany         MOSUNNY   67  45  45 S15       29.69F
$$

NJZ001-105-106-008-010-013-015-019>022-104-232000-
NEW JERSEY

CITY           SKY/WX    TMP DP  RH WIND       PRES   REMARKS
Newark/Liberty MOSUNNY   62  52  69 SW9       29.82F
Teterboro      SUNNY     63  51  65 S12       29.81F
Caldwell       SUNNY     64  50  60 S13G18    29.81F
Somerville     MOSUNNY   65  51  60 S7        29.80F
Linden         NOT AVBL
Sussex         SUNNY     67  51  56 SW9G21    29.78F
Andover          N/A     64  50  60 SW13G23   29.79F
Trenton        SUNNY     66  54  65 VRB5      29.82F
Millville      SUNNY     72  56  57 VRB7      29.84F
Atlantic City  SUNNY     72  52  49 SW15      29.84F
Wrightstown    SUNNY     72  54  53 W12       29.80F
Toms River     MOSUNNY   73  54  51 SW12      29.83F
Belmar         SUNNY     68  54  60 SW8       29.84F
$$

PAZ047>061-062-071-232000-
EASTERN PENNSYLVANIA

CITY           SKY/WX    TMP DP  RH WIND       PRES   REMARKS
Philadelphia   PTSUNNY   69  53  56 S9        29.82F
Allentown      MOSUNNY   64  50  60 SW7       29.81F
Scranton       CLOUDY    66  51  58 W10       29.76F
$$

CTZ002-004>006-009-010-012-RIZ004-006-007-MAZ004-011-015-232000-
SOUTHERN NEW ENGLAND
 IN CT

CITY           SKY/WX    TMP DP  RH WIND       PRES   REMARKS
Bradley INTL   MOSUNNY   65  48  54 S16       29.76F
Hartford       SUNNY     58  50  75 S13       29.79F
Danbury        SUNNY     63  49  60 SW9G16    29.80F
Wtrbury/Oxford SUNNY     61  48  63 SW7       29.80F
Bridgeport     CLOUDY    51  47  86 S5        29.82F FOG
Meriden        SUNNY     55  48  77 S12       29.81F
New Haven      CLOUDY    47  44  90 S6        29.82F FOG
Chester        CLOUDY    52  50  93 SW9       29.82F FOG
Groton         CLOUDY    49  46  90 S5        29.83F FOG
Wilimantic     SUNNY     61  51  70 SW13G20   29.80F

 IN RI

CITY           SKY/WX    TMP DP  RH WIND       PRES   REMARKS
Providence     MOSUNNY   65  51  60 SW12      29.80F
Block Island   SUNNY     51  47  86 SW14G23   29.84F
Westerly       CLOUDY    52  45  77 S7        29.84F
 IN MA

CITY           SKY/WX    TMP DP  RH WIND       PRES   REMARKS
Boston         MOSUNNY   67  45  45 SW21      29.76F
Worcester      SUNNY     63  42  46 SW16      29.76F
Westfield      SUNNY     63  46  54 S13       29.73F
Provincetown   SUNNY     50  45  83 S16G24    29.81S
Nantucket      PTSUNNY   49  44  83 SW12      29.86F
$$

ANZ330-335-338-340-345-350-353-355-232000-
COASTAL MARINE OBSERVATIONS


STATION/POSITION TIME  SKY/WX   TEMP    WIND        PRES    VSBY  WAVE
                                AIR SEA DIR/SP/G                  HT/PER
                 (UTC)          (F)     (DEG/KT/KT) (MB)    (MI)  (FT/S)
NY HARB ENTRANCE 1850            46 44  190/  4/  6 1010.6          3/11
20 S FIRE ISLAND 1850            46 44  210/ 10/ 12 1010.9          3/10
GREAT SOUTH BAY  NOT AVBL
23 SSW MONTAUK P 1750            48 45              1011.6          3/11
15 E BARNEGAT LI 1830               44                N/A           4/10
HUDSON CANYON    1750               49              1012.4          3/11
KINGS POINT      1836            53 40              1009.9
EXECUTION ROCKS  NOT AVBL
CENTRAL LI SOUND NOT AVBL
EASTERN LI SOUND NOT AVBL
ROBBINS REEF     1836            52     160/  8/  8 1010.5
$$


>>>>>>>>>>>>>>>>>>>>>>>>>>>> KEY <<<<<<<<<<<<<<<<<<<<<<<<<<<
>                                                          <
>     SKY/WX - Sky Condition/Present Weather               <
>     TMP    - Temperature in Fahrenheit                   <
>     DP     - Dew Point in Fahrenheit                     <
>     RH     - Relative Humidity in Percent                <
>     WIND   - Direction (from) and Speed in MPH           <
>     PRES   - Mean Sea Level Pressure (inches of Hg)      <
>     WCI    - Wind Chill Index                            <
>     VSB    - VISIBILITY IN MILES                         <
>     HX     - HEAT INDEX                                  <
>     TC     - TEMPERATURE IN CELSIUS                      <
>     VRB    - VARIABLE WIND DIRECTION                     <
>                                                          <
>>>>>>>>>>>>>>>>>>>>>>>>>>>> KEY <<<<<<<<<<<<<<<<<<<<<<<<<<<




USA.gov is the U.S. government's official web portal to all federal, state and local government web resources and services.